Flag for Greenland Weather past 2 weeks in Qaanaaq, Greenland

Now
23 °F

Sunny.


Feels Like: 16 °F
Forecast: N/A
Wind: 6 mph from West

Location: Thule A. B.

Current Time: Apr 27, 2015 at 8:45:22 PM

Latest Report: Apr 27, 2015 at 7:58 PM


Visibility: N/A

Pressure: 30.20 "Hg

Humidity: 42%

Dew point: 3 °F

Location of QaanaaqLocation

Historic Weather in Qaanaaq — Graph

°F

Qaanaaq temperature yesterday

Maximum temperature yesterday: 27 °F (at 12:58 PM)
Minimum temperature yesterday: 18 °F (at 12:58 AM)
Average temperature yesterday: 22 °F

Past Weeks' High & Low Weather Summary

 TemperatureHumidityPressure
High27 °F (Apr 25, 1:58 PM)85% (Apr 20, 7:58 PM)30.90 "Hg (Apr 20, 7:58 PM)
Low-20 °F (Apr 15, 6:58 AM)32% (Apr 26, 5:58 AM)28.98 "Hg (Apr 15, 2:58 PM)
Average3 °F66%29.92 "Hg
* Reported Apr 12 6:58 PM — Apr 27 6:58 PM, Qaanaaq, Weather by CustomWeather, © 2015

Note: Actual official high and low records may vary slightly from our data, if they occured in-between our weather recording intervals... More about our weather records

Advertising

Qaanaaq weather history for previous 24 hours

 ConditionsComfort  
Time TempWeatherWind HumidityBarometerVisibility
6:58 PM
Mon, Apr 27
25 °FSunny.No wind39%30.21 "HgN/A
5:58 PM23 °FSunny.6 mph46%30.22 "HgN/A
4:58 PM23 °FSunny.5 mph46%30.23 "HgN/A
3:58 PM23 °FSunny.5 mph51%30.24 "HgN/A
2:58 PM25 °FSunny.No wind42%30.26 "HgN/A
1:58 PM23 °FSunny.No wind42%30.27 "HgN/A
12:58 PM23 °FSunny.6 mph39%30.29 "HgN/A
11:58 AM23 °FSunny.6 mph36%30.30 "HgN/A
10:58 AM23 °FSunny.7 mph36%30.31 "HgN/A
9:58 AM21 °FSunny.8 mph35%30.32 "HgN/A
8:58 AM18 °FSunny.10 mph45%30.33 "HgN/A
7:58 AM16 °FSunny.12 mph45%30.34 "HgN/A
7:00 AM14 °FSunny.14 mph48%30.38 "HgN/A
6:58 AM14 °FSunny.15 mph48%30.34 "HgN/A
5:58 AM12 °FSunny.7 mph52%30.35 "HgN/A
4:58 AM14 °FSunny.12 mph48%30.37 "HgN/A
3:58 AM14 °FSunny.13 mph48%30.37 "HgN/A
2:58 AM16 °FSunny.15 mph48%30.38 "HgN/A
1:58 AM18 °FSunny.14 mph41%30.38 "HgN/A
12:58 AM16 °FSunny.3 mph79%30.41 "HgN/A
11:58 PM
Sun, Apr 26
18 °FSunny.No wind79%30.42 "HgN/A
10:58 PM19 °FSunny.6 mph73%30.42 "HgN/A
9:58 PM21 °FSunny.9 mph74%30.42 "HgN/A
8:58 PM23 °FSunny.5 mph50%30.42 "HgN/A
Weather by CustomWeather, © 2015

See weather overviewHow to use our weather pages